TimeCDT,TemperatureF,Dew PointF,Humidity,Sea Level PressureIn,VisibilityMPH,Wind Direction,Wind SpeedMPH,Gust SpeedMPH,PrecipitationIn,Events,Conditions,WindDirDegrees,DateUTC
12:01 AM,55.4,46.4,72,30.03,10.0,South,8.1,-,N/A,,Overcast,170,2012-10-13 05:01:00
12:21 AM,55.4,48.2,77,30.03,10.0,South,9.2,-,N/A,,Overcast,170,2012-10-13 05:21:00
12:55 AM,55.4,48.2,77,30.00,10.0,SSE,11.5,17.3,N/A,Rain,Light Rain,160,2012-10-13 05:55:00
1:15 AM,57.2,50.0,77,29.98,10.0,South,9.2,-,N/A,,Overcast,170,2012-10-13 06:15:00
1:35 AM,57.2,50.0,77,29.97,10.0,SSE,5.8,-,N/A,,Overcast,160,2012-10-13 06:35:00
1:55 AM,57.2,51.8,82,29.96,10.0,South,9.2,-,N/A,,Overcast,170,2012-10-13 06:55:00
2:15 AM,57.2,51.8,82,29.95,7.0,South,13.8,18.4,N/A,,Overcast,170,2012-10-13 07:15:00
2:35 AM,59.0,51.8,77,29.95,7.0,South,10.4,-,N/A,,Overcast,190,2012-10-13 07:35:00
2:55 AM,57.2,51.8,82,29.95,10.0,SSW,8.1,-,0.02,Rain,Light Rain,200,2012-10-13 07:55:00
3:15 AM,57.2,51.8,82,29.93,5.0,South,8.1,-,0.03,Rain,Rain,180,2012-10-13 08:15:00
3:35 AM,59.0,53.6,82,29.92,7.0,South,9.2,-,0.05,Rain,Light Rain,170,2012-10-13 08:35:00
3:55 AM,59.0,53.6,82,29.92,5.0,South,6.9,-,0.05,Rain,Light Rain,180,2012-10-13 08:55:00
4:15 AM,59.0,53.6,82,29.91,5.0,South,6.9,-,0.01,Rain,Light Rain,170,2012-10-13 09:15:00
4:35 AM,59.0,53.6,82,29.89,5.0,South,9.2,-,0.01,,Haze,170,2012-10-13 09:35:00
4:55 AM,60.8,55.4,82,29.87,4.0,South,11.5,-,0.01,,Haze,180,2012-10-13 09:55:00
5:15 AM,60.8,55.4,82,29.86,4.0,South,15.0,20.7,N/A,,Haze,180,2012-10-13 10:15:00
5:35 AM,60.8,55.4,82,29.91,3.0,SW,15.0,34.5,0.33,Rain,Heavy Rain,220,2012-10-13 10:35:00
5:55 AM,62.6,57.2,82,29.88,10.0,SSE,9.2,-,0.38,Rain,Rain,150,2012-10-13 10:55:00
6:15 AM,62.6,57.2,82,29.87,7.0,SSE,6.9,-,0.02,Rain,Light Rain,160,2012-10-13 11:15:00
6:35 AM,62.6,57.2,82,29.86,7.0,South,4.6,-,0.02,,Overcast,180,2012-10-13 11:35:00
6:55 AM,62.6,57.2,82,29.84,7.0,South,9.2,-,0.02,,Overcast,170,2012-10-13 11:55:00
7:15 AM,64.4,59.0,83,29.83,7.0,South,11.5,-,N/A,,Overcast,170,2012-10-13 12:15:00
7:35 AM,64.4,60.8,88,29.83,5.0,South,9.2,-,N/A,,Haze,170,2012-10-13 12:35:00
7:55 AM,66.2,60.8,83,29.84,4.0,SSW,6.9,-,N/A,,Haze,210,2012-10-13 12:55:00
8:15 AM,66.2,62.6,88,29.84,4.0,South,15.0,19.6,N/A,,Haze,190,2012-10-13 13:15:00
8:35 AM,66.2,62.6,88,29.84,4.0,SSW,13.8,24.2,N/A,Rain,Rain,200,2012-10-13 13:35:00
8:55 AM,68.0,62.6,83,29.83,5.0,SSW,19.6,24.2,N/A,Rain,Light Rain,200,2012-10-13 13:55:00
9:35 AM,68.0,62.6,83,29.78,7.0,South,12.7,-,0.02,Rain,Light Rain,180,2012-10-13 14:35:00
9:55 AM,69.8,62.6,78,29.79,7.0,South,12.7,18.4,0.02,,Clear,190,2012-10-13 14:55:00
10:15 AM,69.8,62.6,78,29.80,7.0,SW,6.9,-,N/A,,Scattered Clouds,230,2012-10-13 15:15:00
10:35 AM,69.8,62.6,78,29.81,5.0,SSW,10.4,-,N/A,,Haze,200,2012-10-13 15:35:00
10:55 AM,69.8,62.6,78,29.81,7.0,SSW,9.2,-,N/A,,Mostly Cloudy,210,2012-10-13 15:55:00
11:15 AM,69.8,62.6,78,29.80,7.0,SSW,11.5,-,N/A,,Scattered Clouds,200,2012-10-13 16:15:00
11:35 AM,71.6,64.4,78,29.80,10.0,SSW,13.8,-,N/A,,Scattered Clouds,210,2012-10-13 16:35:00
11:55 AM,73.4,64.4,73,29.79,10.0,SSW,17.3,20.7,N/A,,Scattered Clouds,210,2012-10-13 16:55:00
12:35 PM,75.2,64.4,69,29.77,10.0,SSW,17.3,-,N/A,,Scattered Clouds,210,2012-10-13 17:35:00
12:55 PM,75.2,64.4,69,29.75,10.0,SSW,11.5,21.9,N/A,,Scattered Clouds,210,2012-10-13 17:55:00
1:15 PM,77.0,64.4,65,29.75,10.0,SSW,16.1,19.6,N/A,,Scattered Clouds,210,2012-10-13 18:15:00
1:35 PM,77.0,64.4,65,29.74,10.0,SSW,20.7,24.2,N/A,,Scattered Clouds,200,2012-10-13 18:35:00
1:55 PM,77.0,64.4,65,29.74,10.0,SSW,19.6,28.8,N/A,,Scattered Clouds,200,2012-10-13 18:55:00
2:15 PM,77.0,64.4,65,29.73,10.0,South,17.3,21.9,N/A,,Mostly Cloudy,180,2012-10-13 19:15:00
2:35 PM,75.2,64.4,69,29.72,10.0,South,15.0,-,N/A,,Overcast,180,2012-10-13 19:35:00
3:15 PM,77.0,64.4,65,29.70,10.0,SSW,16.1,20.7,N/A,,Overcast,200,2012-10-13 20:15:00
3:35 PM,77.0,66.2,69,29.70,10.0,South,16.1,23.0,N/A,,Overcast,190,2012-10-13 20:35:00
3:55 PM,75.2,66.2,73,29.70,10.0,South,16.1,-,N/A,,Overcast,190,2012-10-13 20:55:00
4:15 PM,75.2,66.2,73,29.69,10.0,South,12.7,-,N/A,,Overcast,180,2012-10-13 21:15:00
4:35 PM,75.2,66.2,73,29.69,10.0,South,17.3,-,N/A,,Mostly Cloudy,180,2012-10-13 21:35:00
4:55 PM,75.2,66.2,73,29.69,10.0,South,12.7,-,N/A,,Overcast,180,2012-10-13 21:55:00
5:15 PM,75.2,66.2,73,29.70,10.0,South,13.8,-,N/A,,Overcast,170,2012-10-13 22:15:00
5:35 PM,73.4,64.4,73,29.69,10.0,South,13.8,-,N/A,,Overcast,180,2012-10-13 22:35:00
5:55 PM,71.6,64.4,78,29.70,10.0,South,15.0,18.4,N/A,,Overcast,180,2012-10-13 22:55:00
6:15 PM,71.6,64.4,78,29.69,4.0,South,13.8,-,N/A,,Haze,180,2012-10-13 23:15:00
6:35 PM,69.8,64.4,83,29.68,7.0,South,9.2,-,N/A,,Overcast,170,2012-10-13 23:35:00
7:15 PM,69.8,64.4,83,29.67,10.0,SSE,10.4,-,N/A,,Overcast,160,2012-10-14 00:15:00
7:35 PM,69.8,64.4,83,29.65,10.0,SE,8.1,-,N/A,,Overcast,140,2012-10-14 00:35:00
7:55 PM,69.8,64.4,83,29.64,10.0,SE,6.9,-,N/A,,Overcast,140,2012-10-14 00:55:00
8:55 PM,69.8,64.4,83,29.65,10.0,WNW,6.9,-,0.23,,Overcast,300,2012-10-14 01:55:00
9:15 PM,64.4,59.0,83,29.65,4.0,Calm,Calm,-,0.16,Rain,Heavy Rain,0,2012-10-14 02:15:00
9:35 PM,64.4,59.0,83,29.69,7.0,West,10.4,-,0.41,Rain,Heavy Rain,270,2012-10-14 02:35:00
9:55 PM,62.6,57.2,82,29.66,3.0,NNW,3.5,-,1.05,Rain,Heavy Rain,330,2012-10-14 02:55:00
10:15 PM,64.4,59.0,83,29.66,7.0,Calm,Calm,-,0.04,Rain,Light Rain,0,2012-10-14 03:15:00
10:55 PM,64.4,59.0,83,29.56,10.0,NE,16.1,-,0.05,Rain,Light Rain,40,2012-10-14 03:55:00
11:15 PM,64.4,59.0,83,29.57,10.0,ENE,8.1,-,N/A,,Clear,70,2012-10-14 04:15:00
11:35 PM,64.4,59.0,83,29.57,10.0,East,10.4,16.1,N/A,,Clear,80,2012-10-14 04:35:00